Location: Fish Springs
(37.0754°N, 118.2540°W)
Time: 15:05:13
(UTC+00:00)

Envisat - Visible Passes

Search period start: 24 January 2022 00:00
Search period end: 03 February 2022 00:00
Orbit: 764 x 766 km, 98.2° (Epoch: 23 January)

Date Brightness Start Highest point End Pass type
(mag) Time Alt. Az. Time Alt. Az. Time Alt. Az.
24 Jan 3.9 12:18:48 10° NNE 12:23:41 46° E 12:28:32 10° S visible
24 Jan 4.2 13:58:48 10° NNW 14:02:19 19° WNW 14:05:49 10° WSW visible
25 Jan 5.3 11:42:56 10° NE 11:46:37 20° E 11:50:16 10° SE visible
25 Jan 3.3 13:21:00 10° N 13:25:46 42° WNW 13:30:30 10° SW visible
26 Jan 2.9 12:43:54 10° NNE 12:49:00 84° ESE 12:54:04 10° SSW visible
26 Jan 4.8 14:26:06 10° NW 14:27:16 11° WNW 14:28:25 10° WNW visible
27 Jan 4.4 12:07:24 10° NNE 12:12:03 35° E 12:16:40 10° SSE visible
27 Jan 4.0 13:46:49 10° NNW 13:50:50 24° WNW 13:54:51 10° WSW visible
28 Jan 5.7 11:31:59 10° ENE 11:34:55 15° E 11:37:49 10° SE visible
28 Jan 3.0 13:09:16 10° N 13:14:13 54° WNW 13:19:09 10° SSW visible
29 Jan 3.3 12:32:21 10° NNE 12:37:24 65° E 12:42:26 10° S visible
29 Jan 4.6 14:13:16 10° NNW 14:15:49 14° WNW 14:18:22 10° W visible
30 Jan 4.8 11:56:05 10° NE 12:00:24 27° E 12:04:41 10° SSE visible
30 Jan 3.7 13:34:56 10° N 13:39:21 31° WNW 13:43:44 10° SW visible
31 Jan 6.0 11:21:34 10° ENE 11:23:12 11° E 11:24:49 10° ESE visible
31 Jan 2.8 12:57:36 10° N 13:02:40 70° WNW 13:07:41 10° SSW visible
01 Feb 3.8 12:20:51 10° NNE 12:25:47 50° E 12:30:42 10° S visible
01 Feb 4.3 14:01:02 10° NNW 14:04:22 18° WNW 14:07:42 10° WSW visible
02 Feb 5.2 11:44:53 10° NE 11:48:43 21° E 11:52:33 10° SE visible
02 Feb 3.4 13:23:07 10° N 13:27:49 39° WNW 13:32:30 10° SW visible
